Location: Breitenfeld
(46.8500°N, 15.6333°E)
Time: 23:20:19
(UTC+00:00)

Cosmos 1814 Rocket - Pass Details

Date: 09 April 2020
Orbit: 744 x 787 km, 74.1° (Epoch: 23 May)

Event Time Altitude Azimuth Distance (km) Brightness Sun altitude
Rises 19:57:36 0° 341° (NNW) 3,289 8.3 -22.0°
Reaches altitude 10° 20:00:05 10° 347° (NNW) 2,358 7.3 -22.3°
Maximum altitude 20:05:18 50° 62° (ENE) 1,005 4.4 -23.0°
Enters shadow 20:05:56 47° 86° (E) 1,039 4.3 -23.1°
